Jackpot

Texas Poker Multi Jackpot System

Kini Telah hadir Jackpot SUPER ROYAL FLUSH

Kini Telah hadir Jackpot 2000 (khusus table VIP keatas).

Ikutilah global jackpot yang tersedia di system kami, dengan system jackpot terbaru dan pertama di indonesia, anda dapat membeli jackpot dengan harga 100 rupiah saja dan menangkan hadiahnya hingga puluhan juta rupiah.

Jackpot bukanlah suatu keharusan untuk dibeli, namun kami memberikan suatu fitur tambahan untuk member tercinta dari www.indokartu168.com.

Terdapat tiga pilihan harga jackpot yang bisa anda beli yaitu :100,500,1000 dan 2000(khusus table VIP Keatas) rupiah.

Hadiah dari Multi jackpot system www.indokartu168.com

  1. full house x 10 harga jackpot yang anda beli.
      (contoh:anda membeli 1000 maka:1000 X10 = 10.000)
  2. four of kind x 250 harga jackpot yang anda beli
      (contoh:anda membeli 1000 maka:1000 X250 = 250.000)
  3. Straight flush x 1200
      (contoh:anda membeli 1000 maka:1000 X1200 = 1.200.000)
  4. Royal flush x 10000 harga jackpot yang anda beli
      (contoh:anda membeli 1000 maka:1000 X10000 = 10.000.000)
  5. SUPER ROYAL FLUSH x 30000 harga jackpot yang anda beli
      (contoh:anda membeli 1000 maka:1000 X30000 = 30.000.000)

Kondisi kartu

  1. full house adalah kondisi kartu dimana kartu anda dan kartu tengah dengan total 7 kartu bisa mendapatkan nilai 5 kartu dengan kombinasi 1 tris(three of kind) dan 1 pair, contoh 3 kartu 10 dan 2 kartu 5
  2. Four of kind adalah kondisi kartu dimana kartu anda dan kartu tengah dengan total 7 kartu bisa mendapatkan nilai 5 kartu dengan kombinasi 4 kartu yang sama jumlah dan 1 kartu apapun juga contoh anda mendapatkan 4 buah kartu angka 3 dan 1 kartu apapun.
  3. Staright flush adalah kondisi kartu dimana kartu anda dan kartu tengah dengan total 7 kartu bisa mendapatkan nilai 5 kartu dengan kombinasi seri / staright dengan kembang yang sama contoh : urutan kartu dari angka 5, 6, 7, 8 , 9 10 dengan kembang yg sama misalnya as hati
  4. Royal flush adalah kondisi kartu dimana kartu anda dan kartu tengah dengan total 7 kartu bisa mendapatkan nilai 5 kartu dengan kombinasi seri / staright dengan kembang yang sama tetapi kartu tersebut haruslah dimulai dari 10. contoh 10, Queen, Jack, King dan aces dengan kembang yang sama
  5. Super Royal flush adalah kondisi kartu dimana Kedua kartu anda digabung dengan 3 kartu pertama meja haruslah royal flush. contoh kartu anda 10,Queen kembang sama dan 3 kartu pertama meja adalah Jack, King dan aces dengan kembang yang sama

Demikian adalah penjelasan dari Multi Jackpot www.indokartu168.com terima kasih dan selamat bermain salam hoki dari kami

Texas Poker Jackpot Winner

TOP SUPER ROYAL FLUSH
No.TanggalNamaPriceWin
122/04 23:08EB89FT040OSuper Royal flush15,000,000
222/04 16:18XDEJAVUXSuper Royal flush3,000,000
322/04 16:02VIOTASuper Royal flush15,000,000
422/04 15:47SAR0H17Super Royal flush3,000,000
522/04 05:55RUSTY009Super Royal flush3,000,000
TOP ROYAL FLUSH
No.TanggalNamaPriceWin
122/04 23:22SDMM9Z7NOBRoyal flush2,000,000
222/04 23:12D3WA9Royal flush10,000,000
322/04 23:10CIMPLUNG00Royal flush5,000,000
422/04 22:52BUSIANG8Royal flush20,000,000
522/04 22:39BERTO20Royal flush1,000,000
TOP STRAIGHT FLUSH
No.TanggalNamaPriceWin
122/04 23:24BATAMJET12Straight Flush1,200,000
222/04 23:22MINI89Straight Flush1,200,000
322/04 23:22JPIKINGStraight Flush60,000
422/04 23:21MISSION_01Straight Flush600,000
522/04 23:20JIGRAK008Straight Flush240,000
LATEST JACKPOT
No.TanggalNamaPriceWin
122/04 23:25S3G3Full House2,000
222/04 23:25JIBOY24Full House2,000
322/04 23:25GOMBLOHFull House2,000
422/04 23:25VD2017Full House5,000
522/04 23:25DEY97Full House5,000
622/04 23:25RODI00000Full House5,000
722/04 23:25B0565977Full House10,000
822/04 23:25FFA0D8A2Full House2,000
922/04 23:25DEMITEMPANFull House1,000
1022/04 23:25COCONUT_7Full House2,000
1122/04 23:25S8NM4CYKL0Full House5,000
1222/04 23:25HAWALI99Full House1,000
1322/04 23:25LHANDI_2Full House1,000
1422/04 23:25PACEMET12Full House5,000
1522/04 23:25UANGKUUUFull House1,000
1622/04 23:25LUCIFERRR6Full House5,000
1722/04 23:25DUNANJAYA7Full House20,000
1822/04 23:25CAPIE89Four Of A Kind500,000
1922/04 23:25DIAMLOEFull House5,000
2022/04 23:25JIPI17Full House1,000
2122/04 23:25JAKA0Full House1,000
2222/04 23:25CHILDZEN99Full House20,000
2322/04 23:25AAKHAFFA26Full House10,000
2422/04 23:25YANK_Full House2,000
2522/04 23:25TELIS331Full House1,000
2622/04 23:25AATHOKIIFull House1,000
2722/04 23:25GEMUH07Full House500
2822/04 23:25RIYANKHANFull House1,000
2922/04 23:25SIMOL123Full House1,000
3022/04 23:25INDAH068Full House5,000
3122/04 23:25FIRUS88Full House10,000
3222/04 23:25X2ZL9RL1VMFull House10,000
3322/04 23:25KATOGEPEFull House5,000
3422/04 23:25SUDAH54Full House5,000
3522/04 23:25KILEF91Full House1,000
3622/04 23:25QCKR2EBA2LFull House2,000
3722/04 23:25EMZE25Full House500
3822/04 23:25R5JM3H1I7MFull House2,000
3922/04 23:25U0PWDEJCQBFull House2,000
4022/04 23:25NCT3DAX69DFull House5,000
4122/04 23:25T4DDJIMARWAAFull House10,000
4222/04 23:25K84TOW55XSFull House1,000
4322/04 23:25BUZ3RR99Full House2,000
4422/04 23:25JATEM69Full House2,000
4522/04 23:25DONIYUDAFull House2,000
4622/04 23:25NIPESLIPFull House2,000
4722/04 23:25ADMIN_QIUFull House2,000
4822/04 23:25HALLUN6BOSFull House5,000
4922/04 23:25NAKNGAPO88Full House1,000
5022/04 23:25NIRWANDA_PFour Of A Kind25,000

Domino Multi Jackpot System

Ikutilah global jackpot yang tersedia di system kami, dengan system jackpot terbaru dan pertama di indonesia, anda dapat membeli jackpot dengan harga 100 rupiah saja dan menangkan hadiahnya hingga puluhan juta rupiah.

Jackpot bukanlah suatu keharusan untuk dibeli, namun kami memberikan suatu fitur tambahan untuk member tercinta dari www.indokartu168.com.

Terdapat tiga pilihan harga jackpot yang bisa anda beli yaitu :100,500 dan 1000 rupiah.

Hadiah dari Multi jackpot system www.indokartu168.com

  1. Murni Kecil x 50 harga jackpot yang anda beli.
      (contoh:anda membeli 1000 maka:1000 X 50 = 50.000)
  2. Murni Besar x 50 harga jackpot yang anda beli
      (contoh:anda membeli 1000 maka:1000 X 50 = 50.000)
  3. BALAK x 100 harga jackpot yang anda beli
      (contoh:anda membeli 1000 maka:1000 X 100 = 100.000)
  4. ENAM DEWA x 6666 harga jackpot yang anda beli
      (contoh:anda membeli 1000 maka:1000 X 6666 = 6.666.000)

Demikian adalah penjelasan dari Multi Jackpot www.indokartu168.com terima kasih dan selamat bermain salam hoki dari kami

Domino Jackpot Winner

TOP ENAM DEWA
No.TanggalNamaPriceWin
122/04 22:42MUJIJYmurni enam6,666,000
222/04 21:40VIVIGOGOmurni enam3,333,000
322/04 21:02LIKUNKUmurni enam6,666,000
422/04 17:39ADAMM234murni enam6,666,000
522/04 14:34EXAHYSEXX6murni enam3,333,000
TOP BALAK
No.TanggalNamaPriceWin
122/04 23:25TWINS21balak100,000
222/04 23:24KRAMA_86balak10,000
322/04 23:19BANGKUNG99balak100,000
422/04 23:19SPORAKERbalak50,000
522/04 23:18PUPUT12JTbalak100,000
LATEST JACKPOT
No.TanggalNamaPriceWin
122/04 23:25TWINS21balak100,000
222/04 23:25MULTI88664murni besar5,000
322/04 23:24MIXLEmurni besar5,000
422/04 23:24BOJJEZ234murni besar25,000
522/04 23:24EVRIT01murni besar25,000
622/04 23:24KRAMA_86balak10,000
722/04 23:24ARSYLA88murni kecil25,000
822/04 23:23LIWON212murni kecil25,000
922/04 23:23YONAYDAYlucky992,500
1022/04 23:23RAGILKUmurni kecil50,000
1122/04 23:23BAGOY789murni kecil5,000
1222/04 23:22RAMJADmurni kecil5,000
1322/04 23:22MAMA624murni kecil5,000
1422/04 23:22BASWIN88lucky9950,000
1522/04 23:22NGEHENG48murni besar5,000
1622/04 23:21ARDHANI104murni besar5,000
1722/04 23:21EMPAT66murni besar50,000
1822/04 23:20DEN1500murni besar5,000
1922/04 23:19CARSAD09murni kecil50,000
2022/04 23:19BANGKUNG99balak100,000
2122/04 23:19JHRFKBVGJ4murni kecil25,000
2222/04 23:19SPORAKERbalak50,000
2322/04 23:18SUSI7777murni kecil25,000
2422/04 23:18PUPUT12JTbalak100,000
2522/04 23:18BABIADU99murni kecil50,000
2622/04 23:17ROFHIKbalak10,000
2722/04 23:17A1EBE9DCmurni besar5,000
2822/04 23:17RATTIH99murni kecil25,000
2922/04 23:17HONGSUYYlucky992,500
3022/04 23:16WIZARD2111murni besar25,000
3122/04 23:16B477U7Pbalak50,000
3222/04 23:15PAMSUS13murni besar5,000
3322/04 23:15JARJIT19murni kecil50,000
3422/04 23:15IMELDA727murni besar50,000
3522/04 23:15WSDVEVEmurni besar5,000
3622/04 23:13BAGOY789murni besar5,000
3722/04 23:13BARON1704lucky9910,000
3822/04 23:13AZHAAR620murni besar50,000
3922/04 23:13JUMASURmurni kecil25,000
4022/04 23:12DEFAX9murni kecil50,000
4122/04 23:12C899balak100,000
4222/04 23:12CLASTER368murni kecil5,000
4322/04 23:11MIXLEbalak10,000
4422/04 23:11YOLLA_ARYAmurni kecil5,000
4522/04 23:10KENOTINGKEbalak10,000
4622/04 23:10BALENO2002murni kecil50,000
4722/04 23:10CASHONLYmurni besar25,000
4822/04 23:10PAR6060lucky9925,000
4922/04 23:10DOKIXTCmurni besar50,000
5022/04 23:10MESSILEO12murni besar50,000

Ceme Multi Jackpot System

Jackpot dilihat dari gabungan kartu pemain dengan kartu bandar. Bandar harus membeli jackpot sebanyak jumlah player yang sedang duduk. Sebagai contoh bila terdapat 3 pemain duduk bermain, dan bandar memutuskan untuk membeli jackpot Rp 1.000, maka pada periode tersebut bandar akan membeli jackpot sebanyak 3xRp1.000 = Rp3.000.

Jackpot bukanlah suatu keharusan untuk dibeli, namun kami memberikan suatu fitur tambahan untuk member tercinta dari www.indokartu168.com.

Terdapat tiga pilihan harga jackpot yang bisa anda beli yaitu :100,500 dan 1000 rupiah.

Hadiah dari Multi jackpot system www.indokartu168.com

  1. Murni Kecil x 50 harga jackpot yang anda beli.
      (contoh:anda membeli 1000 maka:1000 X 50 = 50.000)
  2. Murni Besar x 50 harga jackpot yang anda beli
      (contoh:anda membeli 1000 maka:1000 X 50 = 50.000)
  3. BALAK x 200 harga jackpot yang anda beli
      (contoh:anda membeli 1000 maka:1000 X 200 = 200.000)
  4. ENAM DEWA x 6666 harga jackpot yang anda beli
      (contoh:anda membeli 1000 maka:1000 X 6666 = 6.666.000)

Demikian adalah penjelasan dari Multi Jackpot www.indokartu168.com terima kasih dan selamat bermain salam hoki dari kami

Ceme Jackpot Winner

TOP ENAM DEWA
No.TanggalNamaPriceWin
122/04 23:18BINFAZ27murni enam666,600
222/04 23:14GERTAK02murni enam6,666,000
322/04 23:10KUPU2211murni enam6,666,000
422/04 23:08GORENGTAImurni enam3,333,000
522/04 22:52BASNANDAmurni enam6,666,000
TOP BALAK
No.TanggalNamaPriceWin
122/04 23:25AIK3balak100,000
222/04 23:24PJR2017balak200,000
322/04 23:24BP884935balak200,000
422/04 23:23ALEXKIDbalak20,000
522/04 23:23FF123456balak200,000
LATEST JACKPOT
No.TanggalNamaPriceWin
122/04 23:25ZAP111murni kecil25,000
222/04 23:25AIK3balak100,000
322/04 23:25DEWAWD99murni besar50,000
422/04 23:25COMBO6666murni kecil50,000
522/04 23:25PATAN009murni kecil50,000
622/04 23:25BANG_69murni besar50,000
722/04 23:25HANZLEEmurni besar50,000
822/04 23:25EFENDI05murni besar50,000
922/04 23:25KELPOT99murni besar5,000
1022/04 23:25REVARENNOmurni besar50,000
1122/04 23:25HANTAM222murni besar50,000
1222/04 23:25DIDY11198murni besar50,000
1322/04 23:25RD62YTHE8Wmurni kecil50,000
1422/04 23:25ACHMAD567murni kecil5,000
1522/04 23:25RS160983murni besar50,000
1622/04 23:25XABER1107murni kecil5,000
1722/04 23:25ASEPZAM2murni besar25,000
1822/04 23:25YONIII99murni kecil25,000
1922/04 23:24TARNO56murni besar50,000
2022/04 23:24WARNOE99murni besar50,000
2122/04 23:24PJR2017murni besar50,000
2222/04 23:24PJR2017balak200,000
2322/04 23:24BP884935balak200,000
2422/04 23:24AGUS1195murni besar5,000
2522/04 23:24MMTSP129murni kecil50,000
2622/04 23:24R44M1R3Smurni besar50,000
2722/04 23:24KAJ310murni besar25,000
2822/04 23:24AS_PRO71murni besar5,000
2922/04 23:24CHICARITO8murni kecil50,000
3022/04 23:23KAYRA89murni kecil50,000
3122/04 23:23EX9H0YWR39murni kecil50,000
3222/04 23:23JO20J01T4Cmurni kecil50,000
3322/04 23:23STW212murni kecil50,000
3422/04 23:23RS160983murni kecil50,000
3522/04 23:23SAKHA16murni kecil50,000
3622/04 23:23ALEXKIDbalak20,000
3722/04 23:23FF123456balak200,000
3822/04 23:23CAKEL40murni besar5,000
3922/04 23:23CAN858murni besar50,000
4022/04 23:22B1N2I3murni kecil50,000
4122/04 23:22CHICARITO8murni kecil50,000
4222/04 23:22PIONZ88murni kecil5,000
4322/04 23:22LANTUL267murni kecil50,000
4422/04 23:22RENAULT02balak200,000
4522/04 23:22LALALALA07balak200,000
4622/04 23:22MAZID123murni kecil50,000
4722/04 23:22MYSTER003murni kecil50,000
4822/04 23:21APRIAN1234murni kecil5,000
4922/04 23:21NIAMNINO10murni kecil5,000
5022/04 23:21ADDELIA02balak100,000